Location: Forest
(37.3641°N, 79.2902°W)
Time: 00:50:18
(UTC+00:00)

Hubble Space Telescope - Pass Details

Date: 26 January 2026
Orbit: 478 x 480 km, 28.5° (Epoch: 10 February)

Event Time Altitude Azimuth Distance (km) Brightness Sun altitude
Rises 23:43:51 0° 240° (WSW) 2,511 5.8 -13.8°
Reaches altitude 10° 23:46:27 10° 223° (SW) 1,635 4.1 -14.3°
Maximum altitude 23:49:15 20° 175° (S) 1,149 2.5 -14.9°
Enters shadow 23:51:21 13° 135° (SE) 1,442 2.6 -15.3°
